GW5816 Weather Reports


Display with metric or nautical units.
time (UTC)temp
F
wind
direction
speed
MPH
gust
MPH
rain 1hr
in
rain 24hr
in
rain mn
in
humidity
%
barometer
mb
20260506044142 70 276 1.0 4.0 0.00 0.00 0.00 51 1019.0
20260506043646 70 247 0.0 2.0 0.00 0.00 0.00 51 1019.0
20260506043143 70 274 0.0 3.0 0.00 0.00 0.00 52 1019.0
20260506042644 70 269 0.0 2.0 0.00 0.00 0.00 52 1019.0
20260506042142 70 309 3.0 3.0 0.00 0.00 0.00 52 1019.0
20260506041644 70 260 2.0 2.0 0.00 0.00 0.00 52 1019.0
20260506041143 70 303 2.0 3.0 0.00 0.00 0.00 53 1019.0
20260506040643 70 282 0.0 3.0 0.00 0.00 0.00 52 1019.0
20260506040142 69 288 1.0 2.0 0.00 0.00 0.00 52 1019.0
20260506035641 70 283 1.0 1.0 0.00 0.00 0.00 52 1019.0
20260506035142 70 186 1.0 3.0 0.00 0.00 0.00 51 1019.0
20260506034642 70 296 0.0 3.0 0.00 0.00 0.00 50 1019.0
20260506034149 70 186 0.0 3.0 0.00 0.00 0.00 50 1019.0
20260506033641 70 224 0.0 3.0 0.00 0.00 0.00 50 1019.0
20260506033142 70 290 0.0 3.0 0.00 0.00 0.00 49 1019.0
20260506032643 70 265 1.0 2.0 0.00 0.00 0.00 48 1019.0
20260506032141 70 302 3.0 3.0 0.00 0.00 0.00 48 1019.0
20260506031643 70 256 0.0 3.0 0.00 0.00 0.00 49 1019.0
20260506031145 70 280 0.0 3.0 0.00 0.00 0.00 49 1019.0
20260506030645 69 315 2.0 3.0 0.00 0.00 0.00 50 1019.0
20260506030145 69 302 0.0 2.0 0.00 0.00 0.00 50 1019.0
20260506025649 69 289 0.0 2.0 0.00 0.00 0.00 52 1019.0
20260506025142 69 255 0.0 1.0 0.00 0.00 0.00 53 1019.0
20260506024643 69 292 2.0 2.0 0.00 0.00 0.00 52 1019.0
20260506024144 69 287 1.0 2.0 0.00 0.00 0.00 52 1019.0
20260506023641 69 315 0.0 2.0 0.00 0.00 0.00 51 1019.0
20260506023141 70 288 1.0 2.0 0.00 0.00 0.00 50 1019.0
20260506022644 70 282 1.0 2.0 0.00 0.00 0.00 48 1019.0
20260506022143 70 212 0.0 1.0 0.00 0.00 0.00 48 1019.0
20260506021642 70 269 1.0 2.0 0.00 0.00 0.00 47 1019.0
20260506021145 70 269 0.0 2.0 0.00 0.00 0.00 48 1019.0
20260506020643 71 293 0.0 2.0 0.00 0.00 0.00 47 1019.0
20260506020144 71 293 1.0 2.0 0.00 0.00 0.00 47 1019.0
20260506015642 71 277 1.0 2.0 0.00 0.00 0.00 46 1019.0
20260506015141 71 260 0.0 2.0 0.00 0.00 0.00 45 1019.0
20260506014644 71 89 0.0 2.0 0.00 0.00 0.00 45 1019.0
20260506013652 71 276 3.0 3.0 0.00 0.00 0.00 45 1019.0
20260506013142 71 299 1.0 5.0 0.00 0.00 0.00 46 1019.0
20260506012643 71 268 2.0 2.0 0.00 0.00 0.00 46 1019.0
20260506012143 71 195 0.0 3.0 0.00 0.00 0.00 45 1019.0
20260506011643 71 276 3.0 3.0 0.00 0.00 0.00 46 1019.0
20260506011141 71 269 0.0 2.0 0.00 0.00 0.00 46 1019.0
20260506010642 72 225 1.0 2.0 0.00 0.00 0.00 46 1019.0
20260506010147 72 269 0.0 2.0 0.00 0.00 0.00 45 1019.0
20260506005642 73 289 1.0 2.0 0.00 0.00 0.00 44 1019.0
20260506005144 73 265 1.0 2.0 0.00 0.00 0.00 44 1019.0
20260506004644 73 246 0.0 2.0 0.00 0.00 0.00 45 1019.0
20260506004145 73 269 1.0 3.0 0.00 0.00 0.00 44 1019.0
20260506003643 74 264 0.0 2.0 0.00 0.00 0.00 43 1019.0
20260506003145 74 271 1.0 2.0 0.00 0.00 0.00 43 1019.0
20260506002645 74 189 0.0 2.0 0.00 0.00 0.00 42 1019.0
20260506002145 74 264 2.0 3.0 0.00 0.00 0.00 42 1019.0
20260506001643 75 232 1.0 3.0 0.00 0.00 0.00 41 1019.0
20260506001143 75 296 0.0 5.0 0.00 0.00 0.00 41 1019.0
20260506000643 75 245 1.0 4.0 0.00 0.00 0.00 42 1019.0
20260506000141 75 269 0.0 3.0 0.00 0.00 0.00 42 1019.0
20260505235641 75 291 4.0 5.0 0.00 0.00 0.00 42 1019.0
20260505235144 75 269 0.0 4.0 0.00 0.00 0.00 42 1019.0
20260505234643 76 280 0.0 2.0 0.00 0.00 0.00 43 1019.0
20260505234142 76 274 2.0 2.0 0.00 0.00 0.00 42 1019.0
20260505233646 75 286 2.0 5.0 0.00 0.00 0.00 42 1019.0
20260505233142 76 250 2.0 5.0 0.00 0.00 0.00 42 1019.0
20260505232641 76 201 1.0 2.0 0.00 0.00 0.00 42 1019.0
20260505232142 76 269 0.0 3.0 0.00 0.00 0.00 42 1019.0
20260505231643 76 293 3.0 6.0 0.00 0.00 0.00 42 1019.0
20260505231143 76 251 2.0 3.0 0.00 0.00 0.00 42 1019.0
20260505230644 76 266 3.0 3.0 0.00 0.00 0.00 41 1019.0
20260505230144 77 273 4.0 8.0 0.00 0.00 0.00 40 1019.0
20260505225645 77 285 4.0 4.0 0.00 0.00 0.00 41 1019.0
20260505225144 77 265 1.0 4.0 0.00 0.00 0.00 40 1019.0
20260505224641 77 267 1.0 3.0 0.00 0.00 0.00 40 1019.0
20260505224142 77 306 3.0 3.0 0.00 0.00 0.00 40 1019.0
20260505223643 77 274 2.0 6.0 0.00 0.00 0.00 40 1019.0
20260505223144 77 286 2.0 6.0 0.00 0.00 0.00 39 1019.0
20260505222641 77 275 2.0 7.0 0.00 0.00 0.00 39 1019.0
20260505222144 77 286 6.0 8.0 0.00 0.00 0.00 38 1019.0
20260505221642 78 292 2.0 7.0 0.00 0.00 0.00 37 1019.0
20260505221142 78 195 1.0 4.0 0.00 0.00 0.00 37 1019.0
20260505220643 78 327 0.0 9.0 0.00 0.00 0.00 37 1019.0
20260505220143 79 275 3.0 5.0 0.00 0.00 0.00 37 1019.0
20260505215644 80 311 0.0 5.0 0.00 0.00 0.00 36 1019.0
20260505215143 80 301 1.0 5.0 0.00 0.00 0.00 34 1019.0
20260505214644 80 276 3.0 5.0 0.00 0.00 0.00 35 1019.0
20260505214143 79 302 6.0 6.0 0.00 0.00 0.00 36 1019.0
20260505213644 80 289 5.0 7.0 0.00 0.00 0.00 35 1020.0
20260505213146 80 143 1.0 3.0 0.00 0.00 0.00 34 1020.0
20260505212646 79 335 0.0 6.0 0.00 0.00 0.00 38 1019.0
20260505212145 79 157 2.0 8.0 0.00 0.00 0.00 36 1020.0
20260505211644 80 255 1.0 3.0 0.00 0.00 0.00 35 1020.0
20260505211141 79 242 2.0 12.0 0.00 0.00 0.00 37 1020.0
20260505210643 80 281 4.0 7.0 0.00 0.00 0.00 35 1020.0
20260505210143 79 315 0.0 5.0 0.00 0.00 0.00 35 1020.0
20260505205643 78 319 1.0 4.0 0.00 0.00 0.00 36 1020.0
20260505205143 79 271 3.0 4.0 0.00 0.00 0.00 36 1020.0
20260505204644 78 262 3.0 10.0 0.00 0.00 0.00 36 1020.0
20260505204141 79 287 3.0 8.0 0.00 0.00 0.00 35 1020.0
20260505203643 79 170 2.0 9.0 0.00 0.00 0.00 35 1020.0
20260505203145 78 98 1.0 7.0 0.00 0.00 0.00 35 1020.0
20260505202644 78 278 3.0 13.0 0.00 0.00 0.00 37 1020.0
20260505202145 79 245 6.0 6.0 0.00 0.00 0.00 35 1020.0
20260505201645 79 317 10.0 10.0 0.00 0.00 0.00 34 1020.0
20260505201143 78 235 0.0 8.0 0.00 0.00 0.00 36 1021.0
20260505200643 79 263 4.0 7.0 0.00 0.00 0.00 36 1021.0
20260505200146 80 289 3.0 4.0 0.00 0.00 0.00 35 1021.0
20260505195644 80 120 2.0 6.0 0.00 0.00 0.00 34 1021.0
20260505195143 78 286 3.0 9.0 0.00 0.00 0.00 35 1021.0
20260505194644 78 275 2.0 7.0 0.00 0.00 0.00 35 1021.0
20260505194144 78 276 3.0 6.0 0.00 0.00 0.00 35 1021.0
20260505193644 78 304 2.0 6.0 0.00 0.00 0.00 36 1021.0
20260505193144 78 292 7.0 7.0 0.00 0.00 0.00 35 1021.0
20260505192648 78 102 2.0 9.0 0.00 0.00 0.00 34 1021.0
20260505192144 80 299 3.0 7.0 0.00 0.00 0.00 35 1021.0
20260505191644 79 284 2.0 9.0 0.00 0.00 0.00 37 1021.0
20260505191143 77 256 4.0 5.0 0.00 0.00 0.00 39 1021.0
20260505190644 78 276 6.0 7.0 0.00 0.00 0.00 36 1021.0
20260505190144 80 131 5.0 6.0 0.00 0.00 0.00 35 1021.0
20260505185642 79 294 4.0 5.0 0.00 0.00 0.00 36 1021.0
20260505185143 79 289 4.0 7.0 0.00 0.00 0.00 36 1021.0
20260505184642 78 275 1.0 7.0 0.00 0.00 0.00 35 1021.0
20260505184144 79 320 4.0 5.0 0.00 0.00 0.00 35 1022.0
20260505183643 78 292 3.0 4.0 0.00 0.00 0.00 37 1022.0
20260505183143 77 284 4.0 8.0 0.00 0.00 0.00 39 1022.0
20260505182643 77 277 2.0 4.0 0.00 0.00 0.00 37 1022.0
20260505182144 78 286 5.0 8.0 0.00 0.00 0.00 40 1022.0
20260505181644 77 301 4.0 6.0 0.00 0.00 0.00 39 1022.0
20260505181144 77 273 3.0 7.0 0.00 0.00 0.00 40 1022.0
20260505180644 77 265 4.0 7.0 0.00 0.00 0.00 40 1022.0
20260505180144 77 299 1.0 10.0 0.00 0.00 0.00 40 1022.0
20260505175646 78 256 3.0 9.0 0.00 0.00 0.00 39 1022.0
20260505175143 78 283 7.0 8.0 0.00 0.00 0.00 37 1022.0
20260505174645 78 99 3.0 7.0 0.00 0.00 0.00 36 1022.0
20260505174143 78 288 4.0 5.0 0.00 0.00 0.00 37 1022.0
20260505173646 79 262 3.0 4.0 0.00 0.00 0.00 36 1023.0
20260505173143 78 157 2.0 9.0 0.00 0.00 0.00 37 1023.0
20260505172641 78 110 8.0 11.0 0.00 0.00 0.00 36 1023.0
20260505172143 78 220 1.0 13.0 0.00 0.00 0.00 36 1023.0
20260505171643 77 282 6.0 6.0 0.00 0.00 0.00 35 1023.0
20260505171146 78 289 4.0 7.0 0.00 0.00 0.00 36 1023.0
20260505170643 77 203 3.0 3.0 0.00 0.00 0.00 37 1023.0
20260505170144 77 286 5.0 5.0 0.00 0.00 0.00 39 1023.0
20260505165646 75 278 2.0 9.0 0.00 0.00 0.00 41 1023.0
20260505165147 77 268 4.0 8.0 0.00 0.00 0.00 40 1023.0
20260505164646 77 200 2.0 7.0 0.00 0.00 0.00 39 1022.0
20260505164144 77 278 5.0 8.0 0.00 0.00 0.00 40 1023.0
20260505163644 76 88 4.0 6.0 0.00 0.00 0.00 39 1023.0
20260505163143 76 259 4.0 8.0 0.00 0.00 0.00 41 1023.0
20260505162643 77 307 7.0 12.0 0.00 0.00 0.00 40 1023.0
20260505162144 78 269 3.0 6.0 0.00 0.00 0.00 41 1023.0
20260505161645 76 223 3.0 5.0 0.00 0.00 0.00 40 1023.0
20260505161145 77 290 6.0 7.0 0.00 0.00 0.00 39 1023.0
20260505160644 76 211 2.0 6.0 0.00 0.00 0.00 39 1023.0
20260505160143 76 271 3.0 7.0 0.00 0.00 0.00 41 1023.0
20260505153143 77 147 0.0 3.0 0.00 0.00 0.00 41 1023.0
20260505152645 77 280 2.0 4.0 0.00 0.00 0.00 43 1023.0
20260505152143 76 219 0.0 4.0 0.00 0.00 0.00 41 1023.0
20260505151643 76 126 2.0 5.0 0.00 0.00 0.00 41 1023.0
20260505151144 76 284 1.0 3.0 0.00 0.00 0.00 39 1023.0
20260505150641 74 278 0.0 5.0 0.00 0.00 0.00 44 1024.0
20260505150144 73 299 5.0 5.0 0.00 0.00 0.00 49 1024.0
20260505140644 67 284 1.0 3.0 0.00 0.00 0.00 57 1024.0
20260505140145 69 88 3.0 3.0 0.00 0.00 0.00 55 1023.0
20260505130144 59 277 4.0 5.0 0.00 0.00 0.00 74 1023.0
20260505124643 56 260 0.0 1.0 0.00 0.00 0.00 82 1023.0
20260505124143 56 293 1.0 3.0 0.00 0.00 0.00 80 1023.0
20260505123645 55 283 2.0 2.0 0.00 0.00 0.00 84 1023.0
20260505123146 54 272 1.0 2.0 0.00 0.00 0.00 87 1023.0
20260505122643 52 312 1.0 2.0 0.00 0.00 0.00 95 1023.0
20260505122144 51 319 1.0 1.0 0.00 0.00 0.00 97 1023.0
20260505121643 51 322 0.0 0.0 0.00 0.00 0.00 97 1023.0
20260505121145 50 297 0.0 0.0 0.00 0.00 0.00 98 1023.0
20260505120645 50 269 0.0 0.0 0.00 0.00 0.00 98 1022.0
20260505120146 50 217 0.0 0.0 0.00 0.00 0.00 98 1023.0
20260505115643 49 230 0.0 0.0 0.00 0.00 0.00 98 1022.0
20260505115145 48 315 0.0 0.0 0.00 0.00 0.00 98 1022.0
20260505114646 48 282 0.0 0.0 0.00 0.00 0.00 98 1022.0
20260505114143 48 282 0.0 1.0 0.00 0.00 0.00 98 1022.0
20260505113645 48 297 0.0 0.0 0.00 0.00 0.00 98 1022.0
20260505113144 47 242 0.0 0.0 0.00 0.00 0.00 98 1022.0
20260505112644 47 242 0.0 0.0 0.00 0.00 0.00 98 1022.0
20260505112141 47 224 0.0 0.0 0.00 0.00 0.00 98 1022.0
20260505111644 47 224 0.0 0.0 0.00 0.00 0.00 97 1022.0
20260505111143 47 230 0.0 0.0 0.00 0.00 0.00 97 1022.0
20260505110645 47 297 0.0 0.0 0.00 0.00 0.00 97 1022.0
20260505110144 47 242 0.0 1.0 0.00 0.00 0.00 97 1022.0
20260505102145 47 302 0.0 1.0 0.00 0.00 0.00 97 1021.0
20260505101643 47 224 0.0 0.0 0.00 0.00 0.00 96 1021.0
20260505101144 47 242 0.0 0.0 0.00 0.00 0.00 96 1022.0
20260505100641 47 242 0.0 0.0 0.00 0.00 0.00 96 1021.0
20260505100144 47 242 0.0 0.0 0.00 0.00 0.00 96 1021.0
20260505095642 48 283 0.0 0.0 0.00 0.00 0.00 96 1021.0
20260505095145 48 283 0.0 0.0 0.00 0.00 0.00 96 1021.0
20260505094643 48 310 0.0 1.0 0.00 0.00 0.00 96 1021.0
20260505094144 48 283 0.0 0.0 0.00 0.00 0.00 95 1021.0
20260505093641 48 352 0.0 0.0 0.00 0.00 0.00 95 1021.0
20260505093143 48 214 0.0 1.0 0.00 0.00 0.00 95 1021.0
20260505092645 48 327 0.0 2.0 0.00 0.00 0.00 95 1021.0
20260505092145 48 230 0.0 0.0 0.00 0.00 0.00 95 1021.0
20260505091643 48 230 0.0 0.0 0.00 0.00 0.00 95 1021.0
20260505091146 48 240 0.0 0.0 0.00 0.00 0.00 95 1021.0
20260505090646 48 315 0.0 0.0 0.00 0.00 0.00 94 1021.0
20260505090143 48 315 0.0 0.0 0.00 0.00 0.00 94 1021.0
20260505085643 48 242 0.0 0.0 0.00 0.00 0.00 94 1021.0
20260505085144 48 193 0.0 0.0 0.00 0.00 0.00 94 1021.0
20260505084646 48 218 0.0 0.0 0.00 0.00 0.00 93 1021.0
20260505084142 49 293 0.0 0.0 0.00 0.00 0.00 93 1021.0
20260505083641 49 321 0.0 0.0 0.00 0.00 0.00 93 1021.0
20260505083146 49 321 0.0 1.0 0.00 0.00 0.00 93 1021.0
20260505082641 49 269 0.0 0.0 0.00 0.00 0.00 93 1021.0
20260505082146 49 283 0.0 0.0 0.00 0.00 0.00 93 1021.0
20260505081643 49 288 1.0 1.0 0.00 0.00 0.00 92 1021.0
20260505081145 49 310 2.0 2.0 0.00 0.00 0.00 93 1021.0
20260505080644 49 322 0.0 0.0 0.00 0.00 0.00 92 1021.0
20260505080145 50 240 0.0 1.0 0.00 0.00 0.00 92 1021.0
20260505075644 49 246 0.0 0.0 0.00 0.00 0.00 91 1021.0
20260505075144 50 154 0.0 0.0 0.00 0.00 0.00 91 1021.0
20260505074643 50 322 0.0 1.0 0.00 0.00 0.00 91 1021.0
20260505074143 50 322 0.0 0.0 0.00 0.00 0.00 91 1021.0
20260505073643 50 326 0.0 0.0 0.00 0.00 0.00 91 1021.0
20260505073143 50 205 0.0 0.0 0.00 0.00 0.00 90 1021.0
20260505072643 50 256 0.0 1.0 0.00 0.00 0.00 90 1021.0
20260505072141 50 352 0.0 1.0 0.00 0.00 0.00 90 1021.0
20260505071642 50 154 0.0 2.0 0.00 0.00 0.00 90 1021.0
20260505071143 50 235 0.0 0.0 0.00 0.00 0.00 89 1021.0
20260505070645 50 205 0.0 0.0 0.00 0.00 0.00 89 1021.0
20260505070143 51 306 1.0 1.0 0.00 0.00 0.00 89 1021.0
20260505065642 51 284 0.0 1.0 0.00 0.00 0.00 89 1021.0
20260505065142 51 249 0.0 2.0 0.00 0.00 0.00 88 1021.0
20260505064643 51 309 0.0 0.0 0.00 0.00 0.00 88 1021.0
20260505064144 51 309 0.0 2.0 0.00 0.00 0.00 88 1021.0
20260505063643 51 217 0.0 0.0 0.00 0.00 0.00 87 1021.0
20260505063144 51 217 0.0 0.0 0.00 0.00 0.00 87 1021.0
20260505062645 51 297 0.0 0.0 0.00 0.00 0.00 87 1021.0
20260505062143 51 298 0.0 1.0 0.00 0.00 0.00 88 1021.0
20260505061644 51 315 0.0 0.0 0.00 0.00 0.00 87 1021.0
20260505061144 51 242 0.0 0.0 0.00 0.00 0.00 87 1021.0
20260505060643 52 309 0.0 1.0 0.00 0.00 0.00 87 1021.0
20260505060144 52 230 0.0 0.0 0.00 0.00 0.00 87 1021.0
20260505055642 52 230 0.0 1.0 0.00 0.00 0.00 86 1021.0
20260505055143 52 230 0.0 0.0 0.00 0.00 0.00 86 1021.0
20260505054642 52 325 0.0 0.0 0.00 0.00 0.00 86 1021.0
20260505054141 52 336 0.0 1.0 0.00 0.00 0.00 86 1021.0
20260505053642 52 205 0.0 0.0 0.00 0.00 0.00 85 1021.0
20260505053142 52 297 0.0 0.0 0.00 0.00 0.00 84 1021.0
20260505052642 52 224 0.0 0.0 0.00 0.00 0.00 84 1021.0
20260505052141 53 224 0.0 0.0 0.00 0.00 0.00 83 1021.0
20260505051642 53 224 0.0 0.0 0.00 0.00 0.00 84 1021.0
20260505051142 53 249 0.0 0.0 0.00 0.00 0.00 83 1021.0
20260505050641 53 269 0.0 0.0 0.00 0.00 0.00 83 1021.0
20260505050142 53 310 0.0 0.0 0.00 0.00 0.00 82 1021.0